GW0410 Weather Reports


time (UTC)temp
C
wind
direction
speed
KPH
gust
KPH
rain 1hr
cm
rain 24hr
cm
rain mn
cm
humidity
%
barometer
mb
20260904051046 15 0.0 0.0 0.00 0.00 0.00 88 1019.1
20260904050040 15 0.0 0.0 0.00 0.00 0.00 88 1018.8
20260904045022 15 0.0 0.0 0.00 0.00 0.00 88 1018.8
20260904044030 15 0.0 0.0 0.00 0.00 0.00 88 1019.1
20260904043054 15 0.0 0.0 0.00 0.00 0.00 87 1019.1
20260904042022 15 0.0 0.0 0.00 0.00 0.00 87 1019.2
20260904041026 15 0.0 0.0 0.00 0.00 0.00 86 1019.2
20260904040042 15 0.0 0.0 0.00 0.00 0.00 86 1019.2
20260904035034 15 0.0 0.0 0.00 0.00 0.00 86 1019.3
20260904034033 15 0.0 0.0 0.00 0.00 0.00 85 1019.3
20260904033046 15 0.0 0.0 0.00 0.00 0.00 85 1019.3
20260904032024 15 0.0 0.0 0.00 0.00 0.00 84 1019.2
20260904031049 15 0.0 0.0 0.00 0.00 0.00 83 1019.2
20260904030038 16 0.0 0.0 0.00 0.00 0.00 82 1019.3
20260904025027 16 0.0 0.0 0.00 0.00 0.00 82 1019.3
20260904024031 16 0.0 0.0 0.00 0.00 0.00 81 1019.3
20260904023036 16 0.0 0.0 0.00 0.00 0.00 80 1019.3
20260904022030 16 0.0 0.0 0.00 0.00 0.00 79 1019.3
20260904021025 16 0.0 0.0 0.00 0.00 0.00 79 1019.0
20260904020034 17 0.0 0.0 0.00 0.00 0.00 78 1019.0
20260904015028 17 259 0.0 0.0 0.00 0.00 0.00 78 1019.0
20260904014034 16 0.0 0.0 0.00 0.00 0.00 78 1019.0
20260904013021 16 0.0 0.0 0.00 0.00 0.00 79 1019.7
20260904012059 17 0.0 0.0 0.00 0.00 0.00 79 1019.6
20260904011026 17 272 0.0 0.0 0.00 0.00 0.00 79 1019.3
20260904010032 17 0.0 0.0 0.00 0.00 0.00 79 1019.6
20260904005054 17 0.0 0.0 0.00 0.00 0.00 79 1019.7
20260904004018 17 0.0 0.0 0.00 0.00 0.00 79 1019.7
20260904003022 17 0.0 0.0 0.00 0.00 0.00 79 1019.7
20260904002019 16 0.0 0.0 0.00 0.00 0.00 80 1019.7
20260904001018 16 332 0.0 0.0 0.00 0.00 0.00 80 1019.3
20260904000059 16 0.0 0.0 0.00 0.00 0.00 81 1020.0
20260903235026 16 0.0 0.0 0.00 0.00 0.00 80 1019.9
20260903234031 16 0.0 0.0 0.00 0.00 0.00 80 1019.6
20260903233101 16 0.0 0.0 0.00 0.00 0.00 79 1019.6
20260903232104 16 215 0.0 4.8 0.00 0.00 0.00 79 1019.6
20260903231120 16 0.0 0.0 0.00 0.00 0.00 78 1019.9
20260903230041 17 0.0 0.0 0.00 0.00 0.00 78 1019.7
20260903225021 17 0.0 0.0 0.00 0.00 0.00 76 1019.7
20260903224020 17 0.0 0.0 0.00 0.00 0.00 74 1020.1
20260903223034 18 236 0.0 0.0 0.00 0.00 0.00 73 1020.1
20260903222047 18 262 0.0 0.0 0.00 0.00 0.00 72 1020.1
20260903221025 18 254 0.0 0.0 0.00 0.00 0.00 71 1020.1
20260903220531 18 272 0.0 1.6 0.00 0.00 0.00 71 1020.1
20260903215020 18 274 0.0 0.0 0.00 0.00 0.00 72 1020.0
20260903214036 17 236 0.0 0.0 0.00 0.10 0.00 73 1019.9
20260903213042 17 0.0 0.0 0.00 0.10 0.00 73 1019.9
20260903212020 16 267 0.0 1.6 0.00 0.10 0.00 76 1019.6
20260903211033 15 0.0 0.0 0.00 0.10 0.00 78 1019.3
20260903210020 15 0.0 0.0 0.00 0.10 0.00 78 1019.6
20260903205020 15 0.0 0.0 0.00 0.10 0.00 79 1019.6
20260903204028 16 0.0 0.0 0.00 0.10 0.00 79 1019.6
20260903203023 16 0.0 0.0 0.00 0.10 0.00 79 1019.2
20260903202019 16 0.0 0.0 0.00 0.10 0.00 77 1019.2
20260903201027 16 0.0 0.0 0.00 0.10 0.00 75 1019.2
20260903200031 17 0.0 0.0 0.00 0.10 0.00 72 1019.3
20260903195028 18 0.0 0.0 0.00 0.10 0.00 70 1019.3
20260903194020 18 261 0.0 0.0 0.00 0.10 0.00 65 1019.3
20260903193040 18 0.0 0.0 0.00 0.10 0.00 65 1019.0
20260903192033 18 0.0 0.0 0.00 0.10 0.00 66 1018.9
20260903191030 17 0.0 0.0 0.00 0.10 0.00 69 1018.9
20260903190054 17 0.0 0.0 0.00 0.10 0.00 70 1018.9
20260903185026 17 0.0 0.0 0.00 0.10 0.00 69 1018.8
20260903184024 18 0.0 0.0 0.00 0.10 0.00 67 1018.9
20260903183026 18 0.0 0.0 0.00 0.10 0.00 66 1018.6
20260903182024 18 0.0 0.0 0.00 0.10 0.00 66 1018.5
20260903181024 18 0.0 0.0 0.00 0.10 0.00 66 1018.8
20260903180024 18 0.0 0.0 0.00 0.10 0.00 66 1018.5
20260903175029 19 0.0 0.0 0.00 0.10 0.00 66 1018.5
20260903174041 19 0.0 0.0 0.00 0.10 0.00 65 1018.5
20260903173028 20 0.0 0.0 0.00 0.10 0.00 64 1018.6
20260903172041 20 0.0 0.0 0.00 0.10 0.00 63 1018.6
20260903171034 20 0.0 0.0 0.00 0.10 0.00 63 1018.9
20260903170029 21 0.0 0.0 0.00 0.10 0.00 61 1018.6
20260903165021 21 0.0 0.0 0.00 0.10 0.00 59 1018.6
20260903164046 21 0.0 0.0 0.00 0.10 0.00 59 1018.6
20260903163030 21 0.0 0.0 0.00 0.10 0.00 59 1018.6
20260903162022 22 0.0 0.0 0.00 0.10 0.00 60 1018.6
20260903161053 22 0.0 0.0 0.00 0.10 0.00 57 1018.3
20260903160047 22 0.0 0.0 0.00 0.10 0.00 57 1018.6
20260903155031 23 0.0 0.0 0.00 0.10 0.00 56 1018.7
20260903154039 24 273 0.0 0.0 0.00 0.10 0.00 55 1018.8
20260903153019 25 0.0 0.0 0.00 0.10 0.00 53 1018.8
20260903152138 26 0.0 0.0 0.00 0.10 0.00 51 1018.9
20260903151022 26 245 1.6 6.4 0.00 0.10 0.00 48 1018.9
20260903150043 25 273 0.0 1.6 0.00 0.10 0.00 52 1018.8
20260903145022 23 238 0.0 0.0 0.00 0.10 0.00 53 1018.8
20260903144050 25 270 0.0 4.8 0.00 0.10 0.00 55 1019.2
20260903143103 24 310 0.0 0.0 0.00 0.10 0.00 55 1019.1
20260903142034 24 0.0 0.0 0.00 0.10 0.00 55 1019.1
20260903141020 23 276 0.0 0.0 0.00 0.10 0.00 56 1019.1
20260903135030 24 252 0.0 4.8 0.00 0.10 0.00 55 1019.1
20260903134026 24 241 0.0 0.0 0.00 0.10 0.00 57 1019.1
20260903133033 24 347 0.0 0.0 0.00 0.10 0.00 57 1019.1
20260903132056 24 304 0.0 0.0 0.00 0.10 0.00 55 1019.2
20260903131041 23 226 0.0 1.6 0.00 0.10 0.00 55 1019.1
20260903130044 23 297 0.0 0.0 0.00 0.10 0.00 55 1019.1
20260903125047 23 277 0.0 1.6 0.00 0.10 0.00 55 1019.1
20260903124028 23 241 0.0 0.0 0.00 0.10 0.00 57 1019.1
20260903123034 23 0.0 0.0 0.00 0.10 0.00 58 1019.5
20260903122019 23 345 0.0 0.0 0.00 0.10 0.00 58 1019.5
20260903121026 25 298 0.0 0.0 0.00 0.10 0.00 56 1019.6
20260903120029 25 280 3.2 8.0 0.00 0.10 0.00 53 1019.6
20260903115039 24 276 0.0 3.2 0.00 0.10 0.00 57 1019.5
20260903114021 24 275 0.0 1.6 0.00 0.10 0.00 57 1019.9
20260903113110 24 285 1.6 4.8 0.00 0.10 0.00 56 1019.9
20260903112027 23 272 0.0 0.0 0.00 0.10 0.00 57 1019.8
20260903111040 23 247 1.6 3.2 0.00 0.10 0.00 59 1019.8
20260903110020 23 262 1.6 4.8 0.00 0.10 0.00 57 1019.9
20260903105027 23 234 1.6 6.4 0.00 0.10 0.00 57 1019.9
20260903104040 24 272 3.2 6.4 0.00 0.10 0.00 56 1020.0
20260903103025 24 302 1.6 4.8 0.00 0.10 0.00 60 1020.7
20260903102033 24 7 0.0 3.2 0.00 0.10 0.00 61 1020.7
20260903101022 24 254 0.0 3.2 0.00 0.10 0.00 64 1020.7
20260903100035 23 231 0.0 0.0 0.00 0.10 0.00 65 1021.0
20260903095029 23 0.0 0.0 0.00 0.10 0.00 68 1021.0
20260903094051 23 244 0.0 0.0 0.00 0.10 0.00 70 1021.0
20260903093043 22 0.0 0.0 0.00 0.10 0.00 72 1021.0
20260903092042 22 0.0 0.0 0.00 0.10 0.00 73 1021.0
20260903091037 21 0.0 0.0 0.00 0.10 0.00 77 1020.9
20260903090037 20 0.0 0.0 0.00 0.10 0.00 82 1021.1
20260903085026 18 0.0 0.0 0.00 0.10 0.00 84 1021.1
20260903084027 18 256 0.0 0.0 0.00 0.10 0.00 87 1021.0
20260903083059 17 0.0 0.0 0.00 0.10 0.00 90 1020.7
20260903082052 17 0.0 0.0 0.00 0.10 0.00 92 1020.7
20260903081033 17 0.0 0.0 0.00 0.10 0.00 95 1021.0
20260903080122 17 0.0 0.0 0.00 0.10 0.00 95 1021.0
20260903075042 17 0.0 0.0 0.00 0.10 0.00 96 1021.0
20260903074028 16 0.0 0.0 0.00 0.10 0.00 96 1020.7
20260903073029 16 0.0 0.0 0.00 0.10 0.00 97 1020.7
20260903072035 16 0.0 0.0 0.00 0.10 0.00 97 1020.6
20260903071043 16 0.0 0.0 0.00 0.10 0.00 98 1020.7
20260903070035 16 0.0 0.0 0.00 0.10 0.00 98 1020.4
20260903065019 16 0.0 0.0 0.00 0.10 0.00 99 1020.4
20260903064053 15 0.0 0.0 0.00 0.10 0.00 99 1020.7
20260903063029 15 0.0 0.0 0.00 0.10 0.00 99 1020.7
20260903062033 15 0.0 0.0 0.00 0.10 0.00 99 1020.7
20260903061019 14 0.0 0.0 0.00 0.10 0.00 99 1020.7
20260903060037 14 0.0 0.0 0.00 0.10 0.00 99 1020.7
20260903055022 13 0.0 0.0 0.00 0.10 0.00 99 1020.7
20260903054019 13 0.0 0.0 0.00 0.10 0.00 99 1020.4
20260903053022 13 0.0 0.0 0.00 0.10 0.00 99 1020.7
20260903052023 13 0.0 0.0 0.00 0.10 0.00 99 1020.7